sat.trackr.live / text

‹ back to catalog

GPS BIIRM-3 (PRN 12)

NORAD 29601 · 2006-052A

PAYLOAD ACTIVE UNKNOWN

§ Identity

Operator
Country
US
Launch date
2006-11-17
Launch site
AFETR
Launch vehicle
Mass (kg)
RCS (m²)
4.81

Purposes: earth_obs, nav

External: N2YO · Heavens-Above · Gunter

§ Orbital elements

Epoch: 2026-05-24T11:39:43.030080Z

Period
718.00 min
Inclination
54.9372°
Eccentricity
0.0085625
Mean motion
2.00556865 rev/d
Perigee alt
19,955.4 km
Apogee alt
20,410.2 km
Semi-major
26,560.9 km
B*
0.0000e+0
RAAN
214.9460°
Arg perigee
90.6191°
Mean anomaly
270.4207°
Rev number
14,293

§ Raw data

GPS BIIRM-3 (PRN 12)1 29601U 06052A   26144.48591470 -.00000012  00000+0  00000+0 0  99982 29601  54.9372 214.9460 0085625  90.6191 270.4207  2.00556865142936

JSON: /api/v1/satellites/29601 · /tle

For live sub-satellite position, see the globe view (requires WebGL).

§ Visibility from observer

Set your observer location to see the next 7 days of passes ≥ 10°. The values pass through the URL so the page stays shareable.

No JS? Fill the form by hand. The geolocation button needs JavaScript.